Location: *
(32.8667°N, 13.1833°E)
Time: 16:02:49
(UTC+00:00)

Spot 2 Rocket - Pass Details

Date: 18 July 2019
Orbit: 757 x 773 km, 98.6° (Epoch: 23 August)

Event Time Altitude Azimuth Distance (km) Brightness Sun altitude
Exits shadow 20:25:41 31° 201° (SSW) 1,322 4.5 -22.9°
Maximum altitude 20:27:50 52° 259° (W) 958 4.1 -23.2°
Drops below altitude 10° 20:32:49 10° 336° (NNW) 2,320 7.0 -23.9°
Sets 20:35:12 0° 341° (NNW) 3,251 7.9 -24.2°
